Location: *
(52.2167°S, 179.8667°E)
Time: 09:59:36
(UTC+00:00)

Daily predictions for brighter satellites

Satellite Brightness Start Highest point End
(mag) Time Altitude Azimuth Time Altitude Azimuth Time Altitude Azimuth
Cosmos 614 Rocket 4.0 12:03:34 20° NNW 12:07:10 81° WSW 12:12:25 10° SSE
ATLAS CENTAUR R/B 3.9 12:07:17 10° SW 12:08:33 12° SSW 12:09:49 10° S
Cosmos 1844 4.1 12:05:20 12° NW 12:10:29 62° SW 12:16:13 10° SSE
SeaSat 1 3.2 12:07:22 10° NE 12:12:09 52° SE 12:16:58 10° SSW
Cosmos 1821 Rocket 4.2 12:08:38 19° NNW 12:13:13 65° WSW 12:19:26 10° S
NPP 4.2 12:10:07 13° NE 12:14:52 57° ESE 12:20:14 10° S
Cosmos 44 Rocket 4.0 12:13:30 23° N 12:15:55 39° ENE 12:20:26 10° SE
Cosmos 1992 Rocket 4.0 12:11:17 10° SSW 12:16:35 72° WNW 12:20:05 21° NNE
Cosmos 1727 Rocket 4.2 12:10:45 10° SSW 12:16:54 59° W 12:21:06 21° NNW
Cosmos 1934 Rocket 4.2 12:15:09 20° N 12:19:27 63° E 12:25:40 10° SSE
Cosmos 1703 Rocket 3.9 12:18:10 10° SSW 12:22:32 55° W 12:24:57 25° NNW
USA 276 1.9 12:22:39 45° N 12:22:47 46° N 12:25:35 10° E
CZ-2C R/B 4.3 12:19:21 18° NNW 12:22:57 34° W 12:28:17 10° SSW
BlueWalker 3 2.1 12:23:25 27° NNW 12:25:00 47° NNE 12:28:34 10° ESE
Cosmos 1633 Rocket 4.2 12:22:33 16° NW 12:25:32 35° WSW 12:29:36 10° S
ALOS 4.4 12:23:15 10° ENE 12:26:47 22° ESE 12:30:20 10° S
RESURS DK-1 2.2 12:24:54 10° SSW 12:28:57 89° ESE 12:31:52 18° NNE
Meteor 2-5 Rocket 4.5 12:26:45 10° SSW 12:32:26 45° W 12:36:16 20° NNW
Cosmos 2123 Rocket 4.1 12:30:43 10° SSW 12:37:03 75° W 12:41:36 20° N
H-2A R/B 4.5 12:35:42 10° ENE 12:39:47 22° SE 12:43:53 10° S
ISS -3.8 12:36:35 10° W 12:40:00 71° NNW 12:43:26 10° ENE
MSX 3.9 12:38:07 18° NNE 12:42:34 79° WNW 12:48:28 10° SSW
Meteor 1-16 Rocket 4.1 12:40:04 21° NNW 12:43:42 80° WSW 12:49:11 10° SSE
ATLAS 2AS CENTAUR R/B 4.2 12:39:29 10° SW 12:46:26 42° SSE 12:53:28 10° E
H-2A R/B 4.2 12:43:50 10° ENE 12:46:57 22° ESE 12:50:04 10° S
ATLAS 5 CENTAUR R/B 3.7 12:46:33 10° WSW 12:49:41 15° WNW 12:51:12 14° NW
CZ-2D R/B 3.0 12:46:23 10° NE 12:51:39 49° ESE 12:56:59 10° S
Cosmos 1933 Rocket 4.0 12:51:51 21° NW 12:54:42 54° WSW 12:59:07 10° S
Cosmos 2292 Rocket 3.8 12:52:35 10° SSW 12:56:33 59° W 12:59:48 20° N
ALOS 2 2.8 12:52:44 10° S 12:57:12 66° WSW 13:00:09 20° NNW
ACS3 Solar Sail 3.3 12:52:37 10° ENE 12:58:05 34° ESE 13:03:26 10° S
Cosmos 1340 Rocket 3.4 12:57:03 19° NNE 12:59:29 46° E 13:03:15 10° SSE
Cosmos 1269 Rocket 4.4 12:56:37 19° N 13:00:17 55° ENE 13:05:31 10° SSE
Cosmos 1844 Rocket 4.3 12:56:15 10° WNW 13:01:16 31° SW 13:06:18 10° SSE
USA 215 4.0 13:01:20 10° ESE 13:07:23 37° NE 13:11:53 17° NNW
Cosmos 1441 Rocket 4.1 13:05:59 10° S 13:09:16 40° ESE 13:12:29 10° NE
Meteor 1-21 Rocket 4.3 13:05:11 10° SSW 13:11:10 79° W 13:16:07 15° N
In-Cosmos 22 Rocket 4.4 13:07:13 10° SSW 13:13:02 66° W 13:17:43 16° N
MetOp-A 3.8 13:09:27 10° S 13:13:14 49° WSW 13:15:46 19° NW
Cosmos 921 Rocket 3.1 13:10:48 20° NW 13:13:37 66° WSW 13:17:51 10° SSE
CZ-2C R/B 3.4 13:09:20 10° SSE 13:14:37 46° E 13:19:27 13° N
Magion-5 4.2 13:06:00 10° NW 13:15:34 87° SW 13:20:14 10° SE
Cosmos 1953 4.2 13:13:43 11° WNW 13:16:22 19° WSW 13:19:11 10° SSW
ARGOS Delta rocket 4.3 13:14:33 19° NNW 13:17:55 52° W 13:22:58 10° SSW
Cosmos 1869 Rocket 4.3 13:16:32 18° NW 13:19:37 45° WSW 13:23:57 10° S
COSMOS 2406 4.5 13:15:42 10° SSW 13:21:16 44° SE 13:26:46 10° ENE
Cosmos 1606 2.0 13:20:25 25° NNE 13:21:40 56° E 13:24:14 10° SSE
Cosmos 1833 Rocket 3.4 13:16:59 10° SW 13:22:06 35° WNW 13:25:48 17° NNW
Meteor 1-11 4.4 13:17:33 10° SSW 13:23:31 85° E 13:29:26 10° NNE
Envisat 3.3 13:18:45 10° NNE 13:23:50 68° ESE 13:28:58 10° S
COSMOS 2441 4.4 13:21:00 15° N 13:25:00 69° WNW 13:29:53 10° SSW
ADEOS II 2.5 13:21:39 10° NNE 13:26:52 66° ESE 13:32:09 10° S
Resurs 1-4 Rocket 2.1 13:26:25 10° NNE 13:31:42 82° WNW 13:37:05 10° SSW
Cosmos 2082 Rocket 2.4 13:26:00 10° SSW 13:31:50 79° ESE 13:37:34 10° NE
Cosmos 1733 Rocket 3.1 13:28:45 18° NNW 13:32:04 77° WSW 13:36:34 10° S
Cosmos 1943 Rocket 2.5 13:29:05 16° N 13:33:34 62° ENE 13:39:12 10° SE
CZ-4C R/B 4.3 13:28:32 10° WSW 13:35:25 34° SSW 13:40:56 10° SE
Timation 1 Rocket 4.4 13:30:02 10° SW 13:36:02 64° WNW 13:41:57 10° NNE
ARIANE 5 R/B 4.4 13:33:30 10° S 13:37:06 24° WSW 13:40:39 10° WNW
Cosmos 2278 Rocket 2.5 13:33:18 15° NNW 13:37:56 62° ENE 13:43:37 10° SE
Cosmos 468 Rocket 4.5 13:35:12 10° SSW 13:40:32 65° ESE 13:45:50 10° NE
Cosmos 2242 Rocket 4.3 13:36:43 10° SSW 13:40:54 40° W 13:44:04 16° NNW
USA 267 3.2 13:37:03 10° ENE 13:43:39 80° NNW 13:50:19 10° WSW
FENGYUN 3A 4.3 13:39:47 15° NNW 13:43:52 39° W 13:49:00 10° SSW
SJ 16-02 3.1 13:40:28 10° NNE 13:43:57 24° E 13:47:28 10° SE
IDEFIX/ARIANE 42P 3.7 13:40:54 15° NW 13:44:22 28° W 13:48:54 10° SW
SeaSat 1 3.2 13:46:00 14° N 13:49:42 33° WNW 13:54:10 10° SW
Cosmos 1763 Rocket 3.6 13:45:22 10° SSW 13:50:37 66° WNW 13:55:52 10° N
ADEOS Rocket 3.3 13:44:14 10° NNE 13:51:00 79° ESE 13:57:08 10° SSW
Cosmos 1908 Rocket 4.0 13:48:19 10° N 13:52:32 58° E 13:56:54 10° SSE
USA 276 2.0 13:53:00 10° W 13:55:44 48° N 13:58:40 10° ENE
Cosmos 1140 Rocket 3.8 13:52:31 14° NW 13:57:04 64° WSW 14:02:22 10° SSE
Cosmos 44 Rocket 4.1 13:52:29 10° WNW 13:57:17 48° SW 14:01:59 10° SE
Timation 2 Rocket 4.0 13:56:11 13° NNW 14:01:37 88° ENE 14:07:54 10° SSE
Cosmos 1674 Rocket 4.0 13:58:04 10° SSW 14:02:27 50° W 14:06:34 11° NNW
BlueWalker 3 1.9 13:58:47 10° W 14:02:29 78° S 14:06:10 10° E
ALOS 2.3 13:58:47 10° N 14:03:21 63° WNW 14:07:58 10° SSW
CZ-2C R/B 4.2 14:01:21 10° NE 14:05:27 31° ESE 14:09:32 10° S
RESURS DK-1 4.3 14:04:02 10° WSW 14:05:42 12° WNW 14:07:07 11° NW
METEOR-M 4.3 14:01:14 10° NNE 14:06:37 83° ESE 14:12:05 10° SSW
MOS 1-B Rocket 4.4 14:03:25 10° NNE 14:09:08 61° ESE 14:14:45 10° S
BREEZE-M DEB (TANK) 3.9 14:06:09 10° WSW 14:13:41 35° NW 14:16:29 10° NNE
Cosmos 1025 Rocket 3.4 14:09:43 10° SSW 14:14:01 50° W 14:18:16 10° N
ISS -2.8 14:13:32 10° W 14:16:30 27° NNW 14:19:27 10° NNE
H-2A R/B 2.2 14:13:01 10° NNE 14:18:27 83° WNW 14:24:01 10° SSW
Cosmos 2173 Rocket 4.1 14:15:27 10° NNW 14:21:52 82° W 14:28:24 10° S
H-2A R/B 2.2 14:18:04 10° N 14:22:00 50° WNW 14:25:58 10° SSW
Cosmos 540 Rocket 3.9 14:18:14 10° SW 14:23:08 42° WNW 14:27:58 10° N
Cosmos 2100 Rocket 4.1 14:17:07 10° NNW 14:23:32 78° W 14:30:01 10° S
Cosmos 407 Rocket 3.7 14:20:41 10° NW 14:25:57 70° WSW 14:31:22 10° SSE
Cosmos 304 Rocket 4.4 14:24:37 10° N 14:29:15 53° ENE 14:33:56 10° SSE
CZ-2D R/B 3.0 14:26:54 10° NNW 14:31:48 33° W 14:36:47 10° SSW
Cosmos 1190 Rocket 4.2 14:32:17 10° NNW 14:37:30 78° ENE 14:42:48 10° SSE
Cosmos 1725 Rocket 4.1 14:31:31 10° N 14:37:44 87° E 14:44:03 10° S
ATLAS 2AS CENTAUR R/B 3.0 14:30:44 10° SW 14:38:12 89° NW 14:45:39 10° NE
Cosmos 1954 Rocket 4.3 14:33:50 10° NNW 14:39:03 68° ENE 14:44:23 10° SSE
ACS3 Solar Sail 2.0 14:34:33 10° N 14:40:40 57° W 14:46:43 10° SSW
H-2A R/B 3.7 14:39:36 10° SSE 14:43:19 37° E 14:47:03 10° NNE
AQUA 4.0 14:40:53 10° N 14:45:31 56° W 14:50:14 10° SSW
USA 305 2.9 14:43:22 10° NW 14:46:17 43° NE 14:50:00 10° ESE
Cosmos 1300 Rocket 3.7 14:42:52 10° NNW 14:47:17 72° WSW 14:51:48 10° S
USA 215 3.4 14:44:15 10° ESE 14:50:55 88° NNE 14:57:32 10° WNW
